Погода в Валае

Россия / Пермский край     60°49′38″N   57°30′25″E
В апреле 2022 года жителям России запретили посещать сайт meteo.paraplan.net по решению Генеральной прокуратуры. Аудитория сайта уменьшилась в 10 раз. Владельцы сайта не видят смысла в поддержке погодного сервера в таких условиях. Сайт будет закрыт в октябре.
темп.,
°C
ветер,
м/с
пор.,
м/с
влажн.,
%
обл.,
%
осадки,
мм/ч
давл.,
гПа
погр.,
м
4 октября, вт
вт423:00+9ююз3998100 3.7 1020455
02:00+9ююз31094100 0.7 1021408
05:00+7ююз399695 0.7 1023278
08:00+6ю399787 0.0 1024248
11:00+9ююз388085 0.0 1025378
14:00+12ююз496861 0.0 1026602
17:00+12ююз397048 0.0 1027569
20:00+7ю3108347 0.0 1028240
5 октября, ср
ср523:00+6ю278437 0.0 1028143
02:00+5ююв2682100 0.0 1028120
05:00+4ююв268398 0.0 1029108
08:00+4ю2884100 0.0 1028165
11:00+8ю31064100 0.0 1026400
14:00+9ю3755100 0.0 1026547
17:00+7ю3764100 0.0 1025731
20:00+5ю3790100 0.1 1026967
6 октября, чт
чт623:00+5ююв2985100 0.1 1024558
02:00+5ююв2776100 0.0 1023340
05:00+5ююв2873100 0.0 1022329
08:00+5ююв2975100 0.0 1021359
11:00+4ю3990100 1.1 1020637
14:00+4юв2795100 2.4 1019644
17:00+5юв2595100 2.9 1017307
20:00+5всв1193100 0.1 101619
7 октября, пт
пт723:00+5юв1593100 0.2 1014210
02:00+5ю2693100 0.0 1013366
05:00+4ю2697100 0.0 1013388
08:00+5ююз2797100 0.0 1011426
11:00+5ю3897100 0.0 1010437
14:00+6ююз3896100 0.0 1009557
17:00+6ююз3992100 0.1 1008637
20:00+6ююз31087100 0.2 1006593
8 октября, сб
сб823:00+5юз4894100 1.1 10051109
02:00+4юз3997100 1.1 1004541
05:00+6з3997100 1.9 10041028
08:00+5з4893100 0.6 1006919
11:00+6зсз4984100 0.8 1008931
14:00+6зсз498698 0.1 1010896
17:00+5зсз4982100 0.4 10121124
20:00+5з31084100 0.1 1014714